owner,sensor,date,latitude,longitude,vertical_datum,mass_concentration_of_oxygen_in_sea_water,qcFlag 
NERRS,ioos:station:NOAA.NERRS:apaebwq:1,2017-10-01T00:45:00Z,29.7858,-84.8752,2.03,3.8,1111122 
NERRS,ioos:station:NOAA.NERRS:apaebwq:1,2017-10-01T01:45:00Z,29.7858,-84.8752,2.12,3.1,1111122 
NERRS,ioos:station:NOAA.NERRS:apaebwq:1,2017-10-01T02:45:00Z,29.7858,-84.8752,2.06,3.4,1111122 
NERRS,ioos:station:NOAA.NERRS:apaebwq:1,2017-10-01T03:45:00Z,29.7858,-84.8752,2.08,3.1,1111122 
NERRS,ioos:station:NOAA.NERRS:apaebwq:1,2017-10-01T04:45:00Z,29.7858,-84.8752,2.14,2.8,1111122 
NERRS,ioos:station:NOAA.NERRS:apaebwq:1,2017-10-01T05:45:00Z,29.7858,-84.8752,2.2,3.3,1111122 
NERRS,ioos:station:NOAA.NERRS:apaebwq:1,2017-10-01T06:45:00Z,29.7858,-84.8752,2.2,4.2,1111122 
NERRS,ioos:station:NOAA.NERRS:apaebwq:1,2017-10-01T07:45:00Z,29.7858,-84.8752,2.17,3.7,1111122 
NERRS,ioos:station:NOAA.NERRS:apaebwq:1,2017-10-01T08:45:00Z,29.7858,-84.8752,2.14,3.8,1111122 
NERRS,ioos:station:NOAA.NERRS:apaebwq:1,2017-10-01T09:45:00Z,29.7858,-84.8752,2.11,3.5,1111122 
NERRS,ioos:station:NOAA.NERRS:apaebwq:1,2017-10-01T10:45:00Z,29.7858,-84.8752,2.1,3.5,1111122 
NERRS,ioos:station:NOAA.NERRS:apaebwq:1,2017-10-01T11:45:00Z,29.7858,-84.8752,2.1,3.1,1111122 
NERRS,ioos:station:NOAA.NERRS:apaebwq:1,2017-10-01T12:45:00Z,29.7858,-84.8752,2.13,2.6,1111122 
NERRS,ioos:station:NOAA.NERRS:apaebwq:1,2017-10-01T13:45:00Z,29.7858,-84.8752,2.14,2.6,1111122 
NERRS,ioos:station:NOAA.NERRS:apaebwq:1,2017-10-01T14:45:00Z,29.7858,-84.8752,2.17,3.9,1111122 
NERRS,ioos:station:NOAA.NERRS:apaebwq:1,2017-10-01T15:45:00Z,29.7858,-84.8752,2.2,4.6,1111122 
NERRS,ioos:station:NOAA.NERRS:apaebwq:1,2017-10-01T16:45:00Z,29.7858,-84.8752,2.19,3.9,1111122 
NERRS,ioos:station:NOAA.NERRS:apaebwq:1,2017-10-01T17:45:00Z,29.7858,-84.8752,2.17,4.5,1111122 
NERRS,ioos:station:NOAA.NERRS:apaebwq:1,2017-10-01T18:45:00Z,29.7858,-84.8752,2.13,3.5,1111122 
NERRS,ioos:station:NOAA.NERRS:apaebwq:1,2017-10-01T19:45:00Z,29.7858,-84.8752,2.13,4.5,1111122 
NERRS,ioos:station:NOAA.NERRS:apaebwq:1,2017-10-01T20:45:00Z,29.7858,-84.8752,2.12,4.4,1111122 
NERRS,ioos:station:NOAA.NERRS:apaebwq:1,2017-10-01T21:45:00Z,29.7858,-84.8752,2.07,4.6,1111122 
NERRS,ioos:station:NOAA.NERRS:apaebwq:1,2017-10-01T22:45:00Z,29.7858,-84.8752,2.01,2.6,1111122 
NERRS,ioos:station:NOAA.NERRS:apaebwq:1,2017-10-01T23:45:00Z,29.7858,-84.8752,1.97,3.7,1111122 
NERRS,ioos:station:NOAA.NERRS:apaebwq:1,2017-10-02T00:45:00Z,29.7858,-84.8752,1.95,4.9,1111122 
NERRS,ioos:station:NOAA.NERRS:apaebwq:1,2017-10-02T01:45:00Z,29.7858,-84.8752,1.97,5.4,1111122 
NERRS,ioos:station:NOAA.NERRS:apaebwq:1,2017-10-02T02:45:00Z,29.7858,-84.8752,2.01,5.4,1111122 
NERRS,ioos:station:NOAA.NERRS:apaebwq:1,2017-10-02T03:45:00Z,29.7858,-84.8752,2.07,5.3,1111122 
NERRS,ioos:station:NOAA.NERRS:apaebwq:1,2017-10-02T04:45:00Z,29.7858,-84.8752,2.08,5.6,1111122 
NERRS,ioos:station:NOAA.NERRS:apaebwq:1,2017-10-02T05:45:00Z,29.7858,-84.8752,2.09,5.6,1111122 
NERRS,ioos:station:NOAA.NERRS:apaebwq:1,2017-10-02T10:45:00Z,29.7858,-84.8752,2.28,5.7,1111122 
NERRS,ioos:station:NOAA.NERRS:apaebwq:1,2017-10-02T11:45:00Z,29.7858,-84.8752,2.32,5.5,1111122 
NERRS,ioos:station:NOAA.NERRS:apaebwq:1,2017-10-02T12:45:00Z,29.7858,-84.8752,2.33,5.2,1111122 
NERRS,ioos:station:NOAA.NERRS:apaebwq:1,2017-10-02T13:45:00Z,29.7858,-84.8752,2.33,5.1,1111122 
NERRS,ioos:station:NOAA.NERRS:apaebwq:1,2017-10-02T14:45:00Z,29.7858,-84.8752,2.37,5.6,1111122 
NERRS,ioos:station:NOAA.NERRS:apaebwq:1,2017-10-02T15:45:00Z,29.7858,-84.8752,2.4,5.1,1111122 
NERRS,ioos:station:NOAA.NERRS:apaebwq:1,2017-10-02T16:45:00Z,29.7858,-84.8752,2.4,4.7,1111122 
NERRS,ioos:station:NOAA.NERRS:apaebwq:1,2017-10-02T17:45:00Z,29.7858,-84.8752,2.4,6.2,1111122 
NERRS,ioos:station:NOAA.NERRS:apaebwq:1,2017-10-02T18:45:00Z,29.7858,-84.8752,2.4,5.7,1111122 
NERRS,ioos:station:NOAA.NERRS:apaebwq:1,2017-10-02T19:45:00Z,29.7858,-84.8752,2.38,5.2,1111122 
NERRS,ioos:station:NOAA.NERRS:apaebwq:1,2017-10-02T20:45:00Z,29.7858,-84.8752,2.34,4.9,1111122 
NERRS,ioos:station:NOAA.NERRS:apaebwq:1,2017-10-02T21:45:00Z,29.7858,-84.8752,2.24,5.8,1111122 
NERRS,ioos:station:NOAA.NERRS:apaebwq:1,2017-10-02T22:45:00Z,29.7858,-84.8752,2.16,4.8,1111122 
NERRS,ioos:station:NOAA.NERRS:apaebwq:1,2017-10-02T23:45:00Z,29.7858,-84.8752,2.11,5.0,1111122 
NERRS,ioos:station:NOAA.NERRS:apaebwq:1,2017-10-03T00:45:00Z,29.7858,-84.8752,2.07,4.8,1111122 
NERRS,ioos:station:NOAA.NERRS:apaebwq:1,2017-10-03T01:45:00Z,29.7858,-84.8752,2.06,4.8,1111122 
NERRS,ioos:station:NOAA.NERRS:apaebwq:1,2017-10-03T02:45:00Z,29.7858,-84.8752,2.09,4.6,1111122 
NERRS,ioos:station:NOAA.NERRS:apaebwq:1,2017-10-03T03:45:00Z,29.7858,-84.8752,2.19,4.5,1111122 
NERRS,ioos:station:NOAA.NERRS:apaebwq:1,2017-10-03T04:45:00Z,29.7858,-84.8752,2.29,4.7,1111122 
NERRS,ioos:station:NOAA.NERRS:apaebwq:1,2017-10-03T05:45:00Z,29.7858,-84.8752,2.33,4.7,1111122 
NERRS,ioos:station:NOAA.NERRS:apaebwq:1,2017-10-03T06:45:00Z,29.7858,-84.8752,2.32,4.8,1111122 
NERRS,ioos:station:NOAA.NERRS:apaebwq:1,2017-10-03T07:45:00Z,29.7858,-84.8752,2.29,4.8,1111122 
NERRS,ioos:station:NOAA.NERRS:apaebwq:1,2017-10-03T08:45:00Z,29.7858,-84.8752,2.27,4.8,1111122 
NERRS,ioos:station:NOAA.NERRS:apaebwq:1,2017-10-03T11:45:00Z,29.7858,-84.8752,2.24,4.7,1111122 
NERRS,ioos:station:NOAA.NERRS:apaebwq:1,2017-10-03T12:45:00Z,29.7858,-84.8752,2.24,4.5,1111122 
NERRS,ioos:station:NOAA.NERRS:apaebwq:1,2017-10-03T13:45:00Z,29.7858,-84.8752,2.22,4.3,1111122 
NERRS,ioos:station:NOAA.NERRS:apaebwq:1,2017-10-03T14:45:00Z,29.7858,-84.8752,2.25,4.7,1111122 
NERRS,ioos:station:NOAA.NERRS:apaebwq:1,2017-10-03T15:45:00Z,29.7858,-84.8752,2.26,4.5,1111122 
NERRS,ioos:station:NOAA.NERRS:apaebwq:1,2017-10-03T16:45:00Z,29.7858,-84.8752,2.29,4.6,1111122 
NERRS,ioos:station:NOAA.NERRS:apaebwq:1,2017-10-03T17:45:00Z,29.7858,-84.8752,2.32,4.9,1111122 
NERRS,ioos:station:NOAA.NERRS:apaebwq:1,2017-10-03T18:45:00Z,29.7858,-84.8752,2.32,6.1,1111122 
NERRS,ioos:station:NOAA.NERRS:apaebwq:1,2017-10-03T19:45:00Z,29.7858,-84.8752,2.3,6.0,1111122 
NERRS,ioos:station:NOAA.NERRS:apaebwq:1,2017-10-03T20:45:00Z,29.7858,-84.8752,2.22,4.0,1111122 
NERRS,ioos:station:NOAA.NERRS:apaebwq:1,2017-10-03T21:45:00Z,29.7858,-84.8752,2.16,4.9,1111122 
NERRS,ioos:station:NOAA.NERRS:apaebwq:1,2017-10-03T22:45:00Z,29.7858,-84.8752,2.08,4.1,1111122 
NERRS,ioos:station:NOAA.NERRS:apaebwq:1,2017-10-03T23:45:00Z,29.7858,-84.8752,2.01,4.9,1111122 
NERRS,ioos:station:NOAA.NERRS:apaebwq:1,2017-10-04T00:45:00Z,29.7858,-84.8752,1.97,4.6,1111122 
NERRS,ioos:station:NOAA.NERRS:apaebwq:1,2017-10-04T01:45:00Z,29.7858,-84.8752,1.92,4.1,1111122 
NERRS,ioos:station:NOAA.NERRS:apaebwq:1,2017-10-04T02:45:00Z,29.7858,-84.8752,1.92,4.1,1111122 
NERRS,ioos:station:NOAA.NERRS:apaebwq:1,2017-10-04T03:45:00Z,29.7858,-84.8752,1.99,4.7,1111122 
NERRS,ioos:station:NOAA.NERRS:apaebwq:1,2017-10-04T04:45:00Z,29.7858,-84.8752,2.06,6.0,1111122 
NERRS,ioos:station:NOAA.NERRS:apaebwq:1,2017-10-04T05:45:00Z,29.7858,-84.8752,2.16,6.2,1111122 
NERRS,ioos:station:NOAA.NERRS:apaebwq:1,2017-10-04T06:45:00Z,29.7858,-84.8752,2.2,6.1,1111122 
NERRS,ioos:station:NOAA.NERRS:apaebwq:1,2017-10-04T07:45:00Z,29.7858,-84.8752,2.2,5.6,1111122 
NERRS,ioos:station:NOAA.NERRS:apaebwq:1,2017-10-04T08:45:00Z,29.7858,-84.8752,2.15,4.2,1111122 
NERRS,ioos:station:NOAA.NERRS:apaebwq:1,2017-10-04T10:45:00Z,29.7858,-84.8752,2.07,1.9,1111122 
NERRS,ioos:station:NOAA.NERRS:apaebwq:1,2017-10-04T11:45:00Z,29.7858,-84.8752,2.02,2.1,1111122 
NERRS,ioos:station:NOAA.NERRS:apaebwq:1,2017-10-04T12:45:00Z,29.7858,-84.8752,1.98,2.5,1111122 
NERRS,ioos:station:NOAA.NERRS:apaebwq:1,2017-10-04T13:45:00Z,29.7858,-84.8752,2.0,4.3,1111122 
NERRS,ioos:station:NOAA.NERRS:apaebwq:1,2017-10-04T14:45:00Z,29.7858,-84.8752,2.02,4.4,1111122 
NERRS,ioos:station:NOAA.NERRS:apaebwq:1,2017-10-04T15:45:00Z,29.7858,-84.8752,2.06,6.4,1111122 
NERRS,ioos:station:NOAA.NERRS:apaebwq:1,2017-10-04T16:45:00Z,29.7858,-84.8752,2.1,7.3,1111122 
NERRS,ioos:station:NOAA.NERRS:apaebwq:1,2017-10-04T17:45:00Z,29.7858,-84.8752,2.16,7.2,1111122 
NERRS,ioos:station:NOAA.NERRS:apaebwq:1,2017-10-04T18:45:00Z,29.7858,-84.8752,2.2,6.8,1111122 
NERRS,ioos:station:NOAA.NERRS:apaebwq:1,2017-10-04T19:45:00Z,29.7858,-84.8752,2.21,6.0,1111122 
NERRS,ioos:station:NOAA.NERRS:apaebwq:1,2017-10-04T20:45:00Z,29.7858,-84.8752,2.21,6.9,1111122 
NERRS,ioos:station:NOAA.NERRS:apaebwq:1,2017-10-04T21:45:00Z,29.7858,-84.8752,2.17,6.1,1111122 
NERRS,ioos:station:NOAA.NERRS:apaebwq:1,2017-10-04T22:45:00Z,29.7858,-84.8752,2.12,5.8,1111122 
NERRS,ioos:station:NOAA.NERRS:apaebwq:1,2017-10-04T23:45:00Z,29.7858,-84.8752,2.07,6.0,1111122 
NERRS,ioos:station:NOAA.NERRS:apaebwq:1,2017-10-05T00:45:00Z,29.7858,-84.8752,2.03,6.2,1111122 
NERRS,ioos:station:NOAA.NERRS:apaebwq:1,2017-10-05T01:45:00Z,29.7858,-84.8752,2.03,6.5,1111122 
NERRS,ioos:station:NOAA.NERRS:apaebwq:1,2017-10-05T02:45:00Z,29.7858,-84.8752,1.99,6.3,1111122 
NERRS,ioos:station:NOAA.NERRS:apaebwq:1,2017-10-05T03:45:00Z,29.7858,-84.8752,1.98,6.1,1111122 
NERRS,ioos:station:NOAA.NERRS:apaebwq:1,2017-10-05T04:45:00Z,29.7858,-84.8752,2.09,6.5,1111122 
NERRS,ioos:station:NOAA.NERRS:apaebwq:1,2017-10-05T05:45:00Z,29.7858,-84.8752,2.23,6.1,1111122 
NERRS,ioos:station:NOAA.NERRS:apaebwq:1,2017-10-05T06:45:00Z,29.7858,-84.8752,2.26,5.9,1111122 
NERRS,ioos:station:NOAA.NERRS:apaebwq:1,2017-10-05T07:45:00Z,29.7858,-84.8752,2.25,5.8,1111122 
NERRS,ioos:station:NOAA.NERRS:apaebwq:1,2017-10-05T08:45:00Z,29.7858,-84.8752,2.24,5.5,1111122 
NERRS,ioos:station:NOAA.NERRS:apaebwq:1,2017-10-05T09:45:00Z,29.7858,-84.8752,2.18,4.5,1111122 
NERRS,ioos:station:NOAA.NERRS:apaebwq:1,2017-10-05T10:45:00Z,29.7858,-84.8752,2.1,4.4,1111122 
NERRS,ioos:station:NOAA.NERRS:apaebwq:1,2017-10-05T11:45:00Z,29.7858,-84.8752,2.01,5.0,1111122 
NERRS,ioos:station:NOAA.NERRS:apaebwq:1,2017-10-05T12:45:00Z,29.7858,-84.8752,1.94,4.9,1111122 
NERRS,ioos:station:NOAA.NERRS:apaebwq:1,2017-10-05T13:45:00Z,29.7858,-84.8752,1.91,4.4,1111122 
NERRS,ioos:station:NOAA.NERRS:apaebwq:1,2017-10-05T14:45:00Z,29.7858,-84.8752,1.92,4.7,1111122 
NERRS,ioos:station:NOAA.NERRS:apaebwq:1,2017-10-05T15:45:00Z,29.7858,-84.8752,1.98,5.1,1111122 
NERRS,ioos:station:NOAA.NERRS:apaebwq:1,2017-10-05T17:45:00Z,29.7858,-84.8752,2.18,7.1,1111122 
NERRS,ioos:station:NOAA.NERRS:apaebwq:1,2017-10-05T18:45:00Z,29.7858,-84.8752,2.27,7.2,1111122 
NERRS,ioos:station:NOAA.NERRS:apaebwq:1,2017-10-05T19:45:00Z,29.7858,-84.8752,2.3,7.0,1111122 
NERRS,ioos:station:NOAA.NERRS:apaebwq:1,2017-10-05T20:45:00Z,29.7858,-84.8752,2.28,7.0,1111122 
NERRS,ioos:station:NOAA.NERRS:apaebwq:1,2017-10-05T21:45:00Z,29.7858,-84.8752,2.22,6.2,1111122 
NERRS,ioos:station:NOAA.NERRS:apaebwq:1,2017-10-05T22:45:00Z,29.7858,-84.8752,2.14,4.8,1111122 
NERRS,ioos:station:NOAA.NERRS:apaebwq:1,2017-10-05T23:45:00Z,29.7858,-84.8752,2.05,5.9,1111122 
NERRS,ioos:station:NOAA.NERRS:apaebwq:1,2017-10-06T00:45:00Z,29.7858,-84.8752,2.03,5.1,1111122 
NERRS,ioos:station:NOAA.NERRS:apaebwq:1,2017-10-06T01:45:00Z,29.7858,-84.8752,1.99,3.9,1111122 
NERRS,ioos:station:NOAA.NERRS:apaebwq:1,2017-10-06T02:45:00Z,29.7858,-84.8752,1.94,3.4,1111122 
NERRS,ioos:station:NOAA.NERRS:apaebwq:1,2017-10-06T03:45:00Z,29.7858,-84.8752,1.92,3.9,1111122 
NERRS,ioos:station:NOAA.NERRS:apaebwq:1,2017-10-06T04:45:00Z,29.7858,-84.8752,2.01,6.7,1111122 
NERRS,ioos:station:NOAA.NERRS:apaebwq:1,2017-10-06T05:45:00Z,29.7858,-84.8752,2.11,6.6,1111122 
NERRS,ioos:station:NOAA.NERRS:apaebwq:1,2017-10-06T06:45:00Z,29.7858,-84.8752,2.22,6.5,1111122 
NERRS,ioos:station:NOAA.NERRS:apaebwq:1,2017-10-06T07:45:00Z,29.7858,-84.8752,2.3,6.3,1111122 
NERRS,ioos:station:NOAA.NERRS:apaebwq:1,2017-10-06T08:45:00Z,29.7858,-84.8752,2.31,6.2,1111122 
NERRS,ioos:station:NOAA.NERRS:apaebwq:1,2017-10-06T09:45:00Z,29.7858,-84.8752,2.28,6.1,1111122 
NERRS,ioos:station:NOAA.NERRS:apaebwq:1,2017-10-06T10:45:00Z,29.7858,-84.8752,2.23,5.9,1111122 
NERRS,ioos:station:NOAA.NERRS:apaebwq:1,2017-10-06T11:45:00Z,29.7858,-84.8752,2.17,5.7,1111122 
NERRS,ioos:station:NOAA.NERRS:apaebwq:1,2017-10-06T12:45:00Z,29.7858,-84.8752,2.1,5.3,1111122 
NERRS,ioos:station:NOAA.NERRS:apaebwq:1,2017-10-06T13:45:00Z,29.7858,-84.8752,2.05,5.4,1111122 
NERRS,ioos:station:NOAA.NERRS:apaebwq:1,2017-10-06T14:45:00Z,29.7858,-84.8752,2.01,4.9,1111122 
NERRS,ioos:station:NOAA.NERRS:apaebwq:1,2017-10-06T15:45:00Z,29.7858,-84.8752,2.09,5.9,1111122 
NERRS,ioos:station:NOAA.NERRS:apaebwq:1,2017-10-06T16:45:00Z,29.7858,-84.8752,2.24,6.2,1111122 
NERRS,ioos:station:NOAA.NERRS:apaebwq:1,2017-10-06T17:45:00Z,29.7858,-84.8752,2.38,6.7,1111122 
NERRS,ioos:station:NOAA.NERRS:apaebwq:1,2017-10-06T18:45:00Z,29.7858,-84.8752,2.51,7.2,1111122 
NERRS,ioos:station:NOAA.NERRS:apaebwq:1,2017-10-06T19:45:00Z,29.7858,-84.8752,2.61,7.0,1111122 
NERRS,ioos:station:NOAA.NERRS:apaebwq:1,2017-10-06T20:45:00Z,29.7858,-84.8752,2.66,7.3,1111122 
NERRS,ioos:station:NOAA.NERRS:apaebwq:1,2017-10-06T21:45:00Z,29.7858,-84.8752,2.62,6.1,1111122 
NERRS,ioos:station:NOAA.NERRS:apaebwq:1,2017-10-06T22:45:00Z,29.7858,-84.8752,2.57,5.9,1111122 
NERRS,ioos:station:NOAA.NERRS:apaebwq:1,2017-10-06T23:45:00Z,29.7858,-84.8752,2.51,6.0,1111122 
NERRS,ioos:station:NOAA.NERRS:apaebwq:1,2017-10-07T00:45:00Z,29.7858,-84.8752,2.41,6.3,1111122 
NERRS,ioos:station:NOAA.NERRS:apaebwq:1,2017-10-07T01:45:00Z,29.7858,-84.8752,2.32,6.2,1111122 
NERRS,ioos:station:NOAA.NERRS:apaebwq:1,2017-10-07T02:45:00Z,29.7858,-84.8752,2.28,6.3,1111122 
NERRS,ioos:station:NOAA.NERRS:apaebwq:1,2017-10-07T03:45:00Z,29.7858,-84.8752,2.29,6.4,1111122 
NERRS,ioos:station:NOAA.NERRS:apaebwq:1,2017-10-07T04:45:00Z,29.7858,-84.8752,2.34,6.4,1111122 
NERRS,ioos:station:NOAA.NERRS:apaebwq:1,2017-10-07T05:45:00Z,29.7858,-84.8752,2.44,6.2,1111122 
NERRS,ioos:station:NOAA.NERRS:apaebwq:1,2017-10-07T06:45:00Z,29.7858,-84.8752,2.52,6.0,1111122 
NERRS,ioos:station:NOAA.NERRS:apaebwq:1,2017-10-07T07:45:00Z,29.7858,-84.8752,2.58,5.8,1111122 
NERRS,ioos:station:NOAA.NERRS:apaebwq:1,2017-10-07T08:45:00Z,29.7858,-84.8752,2.61,5.5,1111122 
NERRS,ioos:station:NOAA.NERRS:apaebwq:1,2017-10-07T09:45:00Z,29.7858,-84.8752,2.57,5.3,1111122 
NERRS,ioos:station:NOAA.NERRS:apaebwq:1,2017-10-07T10:45:00Z,29.7858,-84.8752,2.48,4.8,1111122 
NERRS,ioos:station:NOAA.NERRS:apaebwq:1,2017-10-07T11:45:00Z,29.7858,-84.8752,2.38,5.1,1111122 
NERRS,ioos:station:NOAA.NERRS:apaebwq:1,2017-10-07T12:45:00Z,29.7858,-84.8752,2.29,5.5,1111122 
NERRS,ioos:station:NOAA.NERRS:apaebwq:1,2017-10-07T13:45:00Z,29.7858,-84.8752,2.21,5.0,1111122 
NERRS,ioos:station:NOAA.NERRS:apaebwq:1,2017-10-07T14:45:00Z,29.7858,-84.8752,2.13,4.4,1111122 
NERRS,ioos:station:NOAA.NERRS:apaebwq:1,2017-10-07T15:45:00Z,29.7858,-84.8752,2.1,4.8,1111122 
NERRS,ioos:station:NOAA.NERRS:apaebwq:1,2017-10-07T16:45:00Z,29.7858,-84.8752,2.16,5.5,1111122 
NERRS,ioos:station:NOAA.NERRS:apaebwq:1,2017-10-07T17:45:00Z,29.7858,-84.8752,2.3,5.1,1111122 
NERRS,ioos:station:NOAA.NERRS:apaebwq:1,2017-10-07T18:45:00Z,29.7858,-84.8752,2.45,6.8,1111122 
NERRS,ioos:station:NOAA.NERRS:apaebwq:1,2017-10-07T19:45:00Z,29.7858,-84.8752,2.59,6.4,1111122 
NERRS,ioos:station:NOAA.NERRS:apaebwq:1,2017-10-07T20:45:00Z,29.7858,-84.8752,2.69,6.9,1111122 
NERRS,ioos:station:NOAA.NERRS:apaebwq:1,2017-10-07T21:45:00Z,29.7858,-84.8752,2.75,6.7,1111122 
NERRS,ioos:station:NOAA.NERRS:apaebwq:1,2017-10-07T22:45:00Z,29.7858,-84.8752,2.75,6.7,1111122 
NERRS,ioos:station:NOAA.NERRS:apaebwq:1,2017-10-07T23:45:00Z,29.7858,-84.8752,2.75,6.3,1111122 
NERRS,ioos:station:NOAA.NERRS:apaebwq:1,2017-10-08T00:45:00Z,29.7858,-84.8752,2.76,6.3,1111122 
NERRS,ioos:station:NOAA.NERRS:apaebwq:1,2017-10-08T01:45:00Z,29.7858,-84.8752,2.74,6.1,1111122 
NERRS,ioos:station:NOAA.NERRS:apaebwq:1,2017-10-08T02:45:00Z,29.7858,-84.8752,2.68,5.8,1111122 
NERRS,ioos:station:NOAA.NERRS:apaebwq:1,2017-10-08T03:45:00Z,29.7858,-84.8752,2.69,6.2,1111122 
NERRS,ioos:station:NOAA.NERRS:apaebwq:1,2017-10-08T04:45:00Z,29.7858,-84.8752,2.75,6.0,1111122 
NERRS,ioos:station:NOAA.NERRS:apaebwq:1,2017-10-08T05:45:00Z,29.7858,-84.8752,2.8,6.1,1111122 
NERRS,ioos:station:NOAA.NERRS:apaebwq:1,2017-10-08T06:45:00Z,29.7858,-84.8752,2.86,6.1,1111122 
NERRS,ioos:station:NOAA.NERRS:apaebwq:1,2017-10-08T07:45:00Z,29.7858,-84.8752,2.94,6.0,1111122 
NERRS,ioos:station:NOAA.NERRS:apaebwq:1,2017-10-08T08:45:00Z,29.7858,-84.8752,3.01,6.0,1111122 
NERRS,ioos:station:NOAA.NERRS:apaebwq:1,2017-10-08T09:45:00Z,29.7858,-84.8752,2.98,5.6,1111122 
NERRS,ioos:station:NOAA.NERRS:apaebwq:1,2017-10-08T10:45:00Z,29.7858,-84.8752,2.87,5.7,1111122 
NERRS,ioos:station:NOAA.NERRS:apaebwq:1,2017-10-08T11:45:00Z,29.7858,-84.8752,2.76,5.9,1111122 
NERRS,ioos:station:NOAA.NERRS:apaebwq:1,2017-10-08T12:45:00Z,29.7858,-84.8752,2.64,5.9,1111122 
NERRS,ioos:station:NOAA.NERRS:apaebwq:1,2017-10-08T13:45:00Z,29.7858,-84.8752,2.54,5.9,1111122 
NERRS,ioos:station:NOAA.NERRS:apaebwq:1,2017-10-08T14:45:00Z,29.7858,-84.8752,2.44,5.9,1111122 
NERRS,ioos:station:NOAA.NERRS:apaebwq:1,2017-10-08T15:45:00Z,29.7858,-84.8752,2.38,5.9,1111122 
NERRS,ioos:station:NOAA.NERRS:apaebwq:1,2017-10-08T16:45:00Z,29.7858,-84.8752,2.35,5.8,1111122 
NERRS,ioos:station:NOAA.NERRS:apaebwq:1,2017-10-08T17:45:00Z,29.7858,-84.8752,2.35,5.6,1111122 
NERRS,ioos:station:NOAA.NERRS:apaebwq:1,2017-10-08T18:45:00Z,29.7858,-84.8752,2.36,5.3,1111122 
NERRS,ioos:station:NOAA.NERRS:apaebwq:1,2017-10-08T19:45:00Z,29.7858,-84.8752,2.46,5.3,1111122 
NERRS,ioos:station:NOAA.NERRS:apaebwq:1,2017-10-08T20:45:00Z,29.7858,-84.8752,2.57,5.2,1111122 
NERRS,ioos:station:NOAA.NERRS:apaebwq:1,2017-10-08T21:45:00Z,29.7858,-84.8752,2.63,6.6,1111122 
NERRS,ioos:station:NOAA.NERRS:apaebwq:1,2017-10-08T22:45:00Z,29.7858,-84.8752,2.65,6.2,1111122 
NERRS,ioos:station:NOAA.NERRS:apaebwq:1,2017-10-08T23:45:00Z,29.7858,-84.8752,2.61,5.4,1111122 
NERRS,ioos:station:NOAA.NERRS:apaebwq:1,2017-10-09T00:45:00Z,29.7858,-84.8752,2.55,5.5,1111122 
NERRS,ioos:station:NOAA.NERRS:apaebwq:1,2017-10-09T01:45:00Z,29.7858,-84.8752,2.51,5.4,1111122 
NERRS,ioos:station:NOAA.NERRS:apaebwq:1,2017-10-09T02:45:00Z,29.7858,-84.8752,2.51,5.5,1111122 
NERRS,ioos:station:NOAA.NERRS:apaebwq:1,2017-10-09T03:45:00Z,29.7858,-84.8752,2.48,5.8,1111122 
NERRS,ioos:station:NOAA.NERRS:apaebwq:1,2017-10-09T04:45:00Z,29.7858,-84.8752,2.48,5.7,1111122 
NERRS,ioos:station:NOAA.NERRS:apaebwq:1,2017-10-09T05:45:00Z,29.7858,-84.8752,2.5,5.4,1111122 
NERRS,ioos:station:NOAA.NERRS:apaebwq:1,2017-10-09T06:45:00Z,29.7858,-84.8752,2.56,4.6,1111122 
NERRS,ioos:station:NOAA.NERRS:apaebwq:1,2017-10-09T07:45:00Z,29.7858,-84.8752,2.63,4.4,1111122 
NERRS,ioos:station:NOAA.NERRS:apaebwq:1,2017-10-09T10:45:00Z,29.7858,-84.8752,2.62,4.8,1111122 
NERRS,ioos:station:NOAA.NERRS:apaebwq:1,2017-10-09T11:45:00Z,29.7858,-84.8752,2.52,5.1,1111122 
NERRS,ioos:station:NOAA.NERRS:apaebwq:1,2017-10-09T12:45:00Z,29.7858,-84.8752,2.41,5.4,1111122 
NERRS,ioos:station:NOAA.NERRS:apaebwq:1,2017-10-09T13:45:00Z,29.7858,-84.8752,2.32,5.3,1111122 
NERRS,ioos:station:NOAA.NERRS:apaebwq:1,2017-10-09T14:45:00Z,29.7858,-84.8752,2.21,5.1,1111122 
NERRS,ioos:station:NOAA.NERRS:apaebwq:1,2017-10-09T15:45:00Z,29.7858,-84.8752,2.12,5.2,1111122 
NERRS,ioos:station:NOAA.NERRS:apaebwq:1,2017-10-09T16:45:00Z,29.7858,-84.8752,2.04,5.0,1111122 
NERRS,ioos:station:NOAA.NERRS:apaebwq:1,2017-10-09T17:45:00Z,29.7858,-84.8752,2.0,5.1,1111122 
NERRS,ioos:station:NOAA.NERRS:apaebwq:1,2017-10-09T18:45:00Z,29.7858,-84.8752,2.01,4.8,1111122 
NERRS,ioos:station:NOAA.NERRS:apaebwq:1,2017-10-09T19:45:00Z,29.7858,-84.8752,2.11,4.6,1111122 
NERRS,ioos:station:NOAA.NERRS:apaebwq:1,2017-10-09T20:45:00Z,29.7858,-84.8752,2.26,5.1,1111122 
NERRS,ioos:station:NOAA.NERRS:apaebwq:1,2017-10-09T21:45:00Z,29.7858,-84.8752,2.37,6.2,1111122 
NERRS,ioos:station:NOAA.NERRS:apaebwq:1,2017-10-09T22:45:00Z,29.7858,-84.8752,2.44,6.2,1111122 
NERRS,ioos:station:NOAA.NERRS:apaebwq:1,2017-10-09T23:45:00Z,29.7858,-84.8752,2.48,5.5,1111122 
NERRS,ioos:station:NOAA.NERRS:apaebwq:1,2017-10-10T00:45:00Z,29.7858,-84.8752,2.45,5.6,1111122 
NERRS,ioos:station:NOAA.NERRS:apaebwq:1,2017-10-10T01:45:00Z,29.7858,-84.8752,2.39,5.6,1111122 
NERRS,ioos:station:NOAA.NERRS:apaebwq:1,2017-10-10T02:45:00Z,29.7858,-84.8752,2.33,5.6,1111122 
NERRS,ioos:station:NOAA.NERRS:apaebwq:1,2017-10-10T03:45:00Z,29.7858,-84.8752,2.29,5.2,1111122 
NERRS,ioos:station:NOAA.NERRS:apaebwq:1,2017-10-10T04:45:00Z,29.7858,-84.8752,2.29,4.5,1111122 
NERRS,ioos:station:NOAA.NERRS:apaebwq:1,2017-10-10T05:45:00Z,29.7858,-84.8752,2.3,4.3,1111122 
NERRS,ioos:station:NOAA.NERRS:apaebwq:1,2017-10-10T06:45:00Z,29.7858,-84.8752,2.32,4.5,1111122 
NERRS,ioos:station:NOAA.NERRS:apaebwq:1,2017-10-10T07:45:00Z,29.7858,-84.8752,2.4,5.1,1111122 
NERRS,ioos:station:NOAA.NERRS:apaebwq:1,2017-10-10T08:45:00Z,29.7858,-84.8752,2.5,5.2,1111122 
NERRS,ioos:station:NOAA.NERRS:apaebwq:1,2017-10-10T09:45:00Z,29.7858,-84.8752,2.53,4.5,1111122 
NERRS,ioos:station:NOAA.NERRS:apaebwq:1,2017-10-10T10:45:00Z,29.7858,-84.8752,2.51,3.1,1111122 
NERRS,ioos:station:NOAA.NERRS:apaebwq:1,2017-10-10T11:45:00Z,29.7858,-84.8752,2.44,4.4,1111122 
NERRS,ioos:station:NOAA.NERRS:apaebwq:1,2017-10-10T12:45:00Z,29.7858,-84.8752,2.36,4.1,1111122 
NERRS,ioos:station:NOAA.NERRS:apaebwq:1,2017-10-10T13:45:00Z,29.7858,-84.8752,2.27,4.3,1111122 
NERRS,ioos:station:NOAA.NERRS:apaebwq:1,2017-10-10T14:45:00Z,29.7858,-84.8752,2.16,4.1,1111122 
NERRS,ioos:station:NOAA.NERRS:apaebwq:1,2017-10-10T15:45:00Z,29.7858,-84.8752,2.05,3.9,1111122 
NERRS,ioos:station:NOAA.NERRS:apaebwq:1,2017-10-10T16:45:00Z,29.7858,-84.8752,1.96,3.8,1111122 
NERRS,ioos:station:NOAA.NERRS:apaebwq:1,2017-10-10T17:45:00Z,29.7858,-84.8752,1.89,3.5,1111122 
NERRS,ioos:station:NOAA.NERRS:apaebwq:1,2017-10-10T18:45:00Z,29.7858,-84.8752,1.87,2.7,1111122 
NERRS,ioos:station:NOAA.NERRS:apaebwq:1,2017-10-10T19:45:00Z,29.7858,-84.8752,1.94,3.7,1111122 
NERRS,ioos:station:NOAA.NERRS:apaebwq:1,2017-10-10T20:45:00Z,29.7858,-84.8752,2.1,5.1,1111122 
NERRS,ioos:station:NOAA.NERRS:apaebwq:1,2017-10-10T21:45:00Z,29.7858,-84.8752,2.25,5.5,1111122 
NERRS,ioos:station:NOAA.NERRS:apaebwq:1,2017-10-10T22:45:00Z,29.7858,-84.8752,2.35,6.3,1111122 
NERRS,ioos:station:NOAA.NERRS:apaebwq:1,2017-10-10T23:45:00Z,29.7858,-84.8752,2.42,6.5,1111122 
NERRS,ioos:station:NOAA.NERRS:apaebwq:1,2017-10-11T00:45:00Z,29.7858,-84.8752,2.45,5.9,1111122 
NERRS,ioos:station:NOAA.NERRS:apaebwq:1,2017-10-11T01:45:00Z,29.7858,-84.8752,2.42,5.4,1111122 
NERRS,ioos:station:NOAA.NERRS:apaebwq:1,2017-10-11T02:45:00Z,29.7858,-84.8752,2.37,5.4,1111122 
NERRS,ioos:station:NOAA.NERRS:apaebwq:1,2017-10-11T03:45:00Z,29.7858,-84.8752,2.32,5.4,1111122 
NERRS,ioos:station:NOAA.NERRS:apaebwq:1,2017-10-11T04:45:00Z,29.7858,-84.8752,2.28,4.7,1111122 
NERRS,ioos:station:NOAA.NERRS:apaebwq:1,2017-10-11T05:45:00Z,29.7858,-84.8752,2.27,4.4,1111122 
NERRS,ioos:station:NOAA.NERRS:apaebwq:1,2017-10-11T06:45:00Z,29.7858,-84.8752,2.26,3.8,1111122 
NERRS,ioos:station:NOAA.NERRS:apaebwq:1,2017-10-11T07:45:00Z,29.7858,-84.8752,2.3,4.6,1111122 
NERRS,ioos:station:NOAA.NERRS:apaebwq:1,2017-10-11T08:45:00Z,29.7858,-84.8752,2.34,4.2,1111122 
NERRS,ioos:station:NOAA.NERRS:apaebwq:1,2017-10-11T09:45:00Z,29.7858,-84.8752,2.39,4.7,1111122 
NERRS,ioos:station:NOAA.NERRS:apaebwq:1,2017-10-11T10:45:00Z,29.7858,-84.8752,2.41,4.3,1111122 
NERRS,ioos:station:NOAA.NERRS:apaebwq:1,2017-10-11T11:45:00Z,29.7858,-84.8752,2.38,2.6,1111122 
NERRS,ioos:station:NOAA.NERRS:apaebwq:1,2017-10-11T12:45:00Z,29.7858,-84.8752,2.33,2.5,1111122 
NERRS,ioos:station:NOAA.NERRS:apaebwq:1,2017-10-11T13:45:00Z,29.7858,-84.8752,2.26,2.8,1111122 
NERRS,ioos:station:NOAA.NERRS:apaebwq:1,2017-10-11T14:45:00Z,29.7858,-84.8752,2.16,3.8,1111122 
NERRS,ioos:station:NOAA.NERRS:apaebwq:1,2017-10-11T15:45:00Z,29.7858,-84.8752,2.04,4.0,1111122 
NERRS,ioos:station:NOAA.NERRS:apaebwq:1,2017-10-11T16:45:00Z,29.7858,-84.8752,1.94,3.8,1111122 
NERRS,ioos:station:NOAA.NERRS:apaebwq:1,2017-10-11T17:45:00Z,29.7858,-84.8752,1.86,3.5,1111122 
NERRS,ioos:station:NOAA.NERRS:apaebwq:1,2017-10-11T18:45:00Z,29.7858,-84.8752,1.83,3.3,1111122 